Location: Old Broadwell Mill Observatory
(33.8015°N, 85.8137°W)
Time: 13:47:45
(UTC-05:00)

Gurwin Techsat 1B - Visible Passes

Search period start: 30 April 2016 00:00
Search period end: 10 May 2016 00:00
Orbit: 811 x 815 km, 98.6° (Epoch: 30 April)

Date Brightness Start Highest point End Pass type
(mag) Time Alt. Az. Time Alt. Az. Time Alt. Az.
30 Apr 10.3 02:15:14 10° NNE 02:18:30 29° ENE 02:18:30 29° ENE visible
30 Apr 9.9 03:55:33 10° NNW 03:59:42 25° WNW 03:59:42 25° WNW visible
01 May 10.8 01:53:15 10° NE 01:55:31 18° ENE 01:55:31 18° ENE visible
01 May 9.3 03:32:15 10° N 03:36:44 39° WNW 03:36:44 39° WNW visible
02 May 11.3 01:32:21 10° ENE 01:32:32 10° ENE 01:32:32 10° ENE visible
02 May 8.9 03:09:14 10° N 03:13:45 59° NNW 03:13:45 59° NNW visible
03 May 9.1 02:46:27 10° NNE 02:50:47 57° NE 02:50:47 57° NE visible
03 May 10.6 04:29:02 10° NW 04:31:02 12° WNW 04:31:59 12° WNW visible
04 May 9.8 02:23:55 10° NNE 02:27:48 37° ENE 02:27:48 37° ENE visible
04 May 10.1 04:04:45 10° NNW 04:08:33 20° WNW 04:09:01 20° WNW visible
05 May 10.5 02:01:43 10° NE 02:04:48 23° ENE 02:04:48 23° ENE visible
05 May 9.5 03:41:17 10° N 03:45:59 33° WNW 03:46:02 33° WNW visible
06 May 11.1 01:40:11 10° ENE 01:41:50 14° ENE 01:41:50 14° ENE visible
06 May 8.9 03:18:09 10° N 03:23:03 54° WNW 03:23:03 54° WNW visible
07 May 8.7 02:55:17 10° NNE 03:00:04 73° NNE 03:00:04 73° NNE visible
08 May 9.3 02:32:38 10° NNE 02:37:04 48° ENE 02:37:04 48° ENE visible
08 May 10.3 04:14:02 10° NNW 04:17:18 17° WNW 04:18:17 16° WNW visible
09 May 10.1 02:10:17 10° NE 02:14:05 29° ENE 02:14:05 29° ENE visible
09 May 9.7 03:50:22 10° NNW 03:54:46 27° WNW 03:55:18 27° W visible
